Snowfall_Accumulation
0.0 0.0 0.0 0.0 0.0 0.0 0.0 0.0 0.0 0.0 0.0 0.0 0.0 0.0 0.0 0.0 0.0 0.0 0.0 0.0 0.0 0.0 0.0 0.0 0.0 0.0 0.0 0.0 0.0 0.0 0.0 0.0 0.0 0.0 0.0 0.0 0.0 0.0 0.0 0.0 0.0 0.0 0.0 0.0
0.0 0.0 0.0 0.0 0.0 0.0 0.0 0.0 0.0 0.0 0.0 0.0 0.0 0.0 0.0 0.0 0.0 0.0 0.0 0.0 0.0 0.0 0.0 0.0 0.0 0.0 0.0 0.0 0.0 0.0 0.0 0.0 0.0 0.0 0.0 0.0 0.0 0.0 0.0 0.0 0.0 0.0 0.0 0.0
0.0 0.0 0.0 0.0 0.0 0.0 0.0 0.0 0.0 0.0 0.0 0.0 0.0 0.0 0.0 0.0 0.0 0.0 0.0 0.0 0.0 0.0 0.0 0.0 0.0 0.0 0.0 0.0 0.0 0.0 0.0 0.0 0.0 0.0 0.0 0.0 0.0 0.0 0.0 0.0 0.0 0.0 0.0 0.0
0.0 0.0 0.0 0.0 0.0 0.0 0.0 0.0 0.0 0.0 0.0 0.0 0.0 0.1 0.0 0.0 0.0 0.0 0.0 0.0 0.0 0.0 0.0 0.0 0.0 0.0 0.0 0.0 0.0 0.0 0.0 0.0 0.0 0.0 0.0 0.0 0.0 0.0 0.0 0.0 0.0 0.0 0.0 0.0
0.0 0.0 0.0 0.0 0.0 0.0 0.0 0.0 0.0 0.0 0.0 0.0 0.0 0.0 0.0 0.0 0.0 0.0 0.0 0.0 0.0 0.0 0.0 0.0 0.0 0.0 0.0 0.0 0.0 0.0 0.0 0.0 0.0 0.0 0.0 0.0 0.0 0.0 0.0 0.0 0.0 0.0 0.0 0.0
0.0 0.0 0.0 0.0 0.0 0.0 0.0 0.0 0.0 0.0 0.0 0.3 0.0 0.0 0.0 0.0 0.0 0.0 0.0 0.0 0.0 0.0 0.0 0.0 0.0 0.0 0.0 0.0 0.0 0.0 0.0 0.0 0.0 0.0 0.0 0.0 0.0 0.0 0.0 0.0 0.0 0.0 0.0 0.0
0.0 0.0 0.0 0.0 0.0 0.0 0.0 0.0 0.5 1.1 2.7 1.4 0.0 0.2 0.0 0.0 0.0 0.0 0.0 0.0 0.0 0.0 0.0 0.0 0.0 0.0 0.0 0.0 0.0 0.0 0.0 0.0 0.0 0.0 0.0 0.0 0.0 0.0 0.0 0.0 0.0 0.0 0.0 0.0
0.0 0.0 0.0 0.0 0.0 0.0 0.0 0.0 1.2 4.3 3.1 1.2 0.2 0.5 0.0 0.0 0.0 0.0 0.0 0.0 0.0 0.0 0.0 0.0 0.0 0.0 0.0 0.0 0.0 0.0 0.0 0.0 0.0 0.0 0.0 0.0 0.0 0.0 0.0 0.0 0.0 0.0 0.0 0.0
0.0 0.0 0.0 0.0 0.0 0.0 0.0 0.0 0.0 0.7 5.7 4.6 0.1 0.0 0.0 0.0 0.0 0.0 0.0 0.0 0.0 0.0 0.0 0.0 0.0 0.0 0.0 0.0 0.0 0.0 0.0 0.0 0.0 0.0 0.0 0.0 0.0 0.0 0.0 0.0 0.0 0.0 0.0 0.0
0.0 0.1 0.0 0.0 0.0 0.0 0.0 0.0 0.6 0.7 6.2 4.7 0.0 0.0 0.0 0.0 0.0 0.0 0.0 0.0 0.0 0.0 0.0 0.0 0.0 0.0 0.0 0.0 0.0 0.0 0.0 0.0 0.0 0.0 0.0 0.0 0.0 0.0 0.0 0.0 0.0 0.0 0.0 0.0
0.0 0.0 0.0 0.0 0.0 0.0 0.0 0.0 0.0 0.0 0.7 4.0 3.3 0.5 0.0 0.0 0.0 0.0 0.0 0.0 0.0 0.0 0.0 0.0 0.0 0.0 0.0 0.0 0.0 0.0 0.0 0.0 0.0 0.0 0.0 0.0 0.0 0.0 0.0 0.0 0.0 0.0 0.0 0.0
0.0 0.0 0.8 0.0 0.0 0.0 0.0 0.0 0.0 1.5 1.0 0.9 2.8 1.9 0.0 0.0 0.0 0.0 0.0 0.0 0.0 0.0 0.0 0.0 0.0 0.0 0.0 0.0 0.0 0.0 0.0 0.0 0.0 0.0 0.0 0.0 0.0 0.0 0.0 0.0 0.0 0.0 0.0 0.0
0.0 0.4 2.4 1.0 0.1 0.0 0.1 0.0 0.0 0.0 0.4 2.2 6.0 1.7 0.0 0.0 0.0 0.0 0.0 0.0 0.0 0.0 0.0 0.0 0.0 0.0 0.0 0.0 0.0 0.0 0.0 0.0 0.0 0.0 0.0 0.0 0.0 0.0 0.0 0.0 0.0 0.1 0.1 0.1
nan 0.1 0.1 0.6 0.0 0.0 0.2 0.0 0.0 0.0 2.8 1.8 1.1 0.3 0.0 0.0 0.0 0.0 0.0 0.0 0.0 0.0 0.0 0.0 0.0 0.0 0.0 0.0 0.0 0.0 0.0 0.0 0.0 0.0 0.0 0.0 0.0 0.0 0.0 0.0 0.1 0.1 0.1 0.1
0.1 0.6 0.0 0.0 0.0 0.0 0.0 0.0 0.0 0.1 0.1 0.4 0.1 0.1 0.0 0.0 0.0 0.0 0.0 0.0 0.0 0.0 0.0 0.0 0.0 0.0 0.0 0.0 0.0 0.0 0.0 0.0 0.0 0.0 0.0 0.0 0.0 0.1 0.1 0.1 0.2 0.1 0.1 0.1
0.2 1.5 0.2 1.0 0.0 0.0 0.1 0.0 0.0 0.0 0.1 0.1 0.2 0.3 0.0 0.0 0.0 0.0 0.0 0.0 0.0 0.0 0.0 0.0 0.0 0.0 0.0 0.0 0.0 0.0 0.0 0.0 0.1 0.1 0.1 0.1 0.2 0.3 0.3 0.3 0.5 0.3 0.3 0.3
0.8 2.0 6.6 8.4 0.2 0.5 3.7 0.1 0.0 0.0 0.0 0.0 0.4 0.1 0.0 0.0 0.0 0.0 0.0 0.0 0.0 0.0 0.0 0.0 0.0 0.0 0.0 0.0 0.0 0.0 0.0 0.0 0.2 0.3 0.6 0.6 0.4 0.6 0.4 0.4 0.5 0.4 0.3 0.4
0.8 3.7 7.2 13.0 8.7 20.0 0.5 0.0 0.0 0.0 0.0 0.0 0.0 0.0 0.0 0.0 0.0 0.0 0.0 0.0 0.0 0.0 0.0 0.0 0.0 0.0 0.0 0.0 0.0 0.1 0.1 0.2 0.5 0.9 1.2 0.6 0.8 1.1 0.3 0.3 0.4 0.3 0.2 0.3
0.3 1.1 7.3 19.2 12.0 0.6 0.0 0.0 0.0 0.0 0.1 0.0 0.0 0.0 0.0 0.0 0.0 0.0 0.0 0.0 0.0 0.0 0.0 0.0 0.0 0.0 0.0 0.0 0.1 0.3 0.4 0.4 0.6 0.5 0.6 0.4 1.3 2.5 0.7 2.4 0.4 0.3 1.3 0.9
0.9 0.8 2.9 14.4 18.7 15.6 0.1 0.0 0.0 0.0 0.5 0.0 0.0 0.0 0.0 0.1 2.2 0.2 0.0 0.0 0.0 0.0 0.0 0.0 0.0 0.1 0.1 0.1 0.3 0.4 0.3 0.4 0.5 0.5 0.6 0.5 1.6 3.3 2.6 1.3 2.0 2.2 2.1 2.1
5.0 8.7 8.7 8.4 15.4 3.2 0.0 0.0 0.0 3.9 0.1 0.0 0.0 0.0 0.1 0.9 0.1 0.0 0.0 0.0 0.0 0.0 0.0 0.0 0.1 0.2 0.2 0.5 0.7 0.5 0.3 0.5 0.5 0.7 0.7 0.9 1.3 3.4 2.2 2.5 1.9 2.9 3.0 1.6
2.0 8.6 17.7 11.8 15.3 14.5 0.0 0.0 0.0 0.0 0.0 0.0 0.0 0.0 0.2 0.1 0.0 0.0 0.0 0.0 0.0 0.0 0.0 0.1 0.4 0.2 0.4 0.7 1.6 0.7 0.5 0.4 0.7 1.1 1.4 2.2 3.4 3.4 3.4 5.4 3.4 4.5 4.1 4.0
4.0 0.4 2.9 0.7 1.7 0.0 0.0 0.0 0.0 0.0 0.1 0.2 0.2 0.1 0.1 0.2 0.1 0.0 0.0 0.0 0.0 0.0 0.2 0.3 0.5 0.5 0.3 0.6 1.7 3.1 0.4 0.7 1.3 3.3 4.2 4.7 4.2 4.2 4.8 6.8 3.9 5.4 4.5 5.3
0.1 0.0 0.6 0.4 0.1 0.0 0.0 0.0 0.0 0.1 0.1 0.0 0.2 0.1 0.5 0.7 0.5 1.2 0.8 0.5 0.3 0.3 0.5 0.8 1.2 1.3 0.9 1.0 1.2 1.6 1.4 1.5 6.4 6.3 3.5 2.7 3.5 2.7 3.5 4.7 5.3 7.2 5.4 4.2
0.1 0.0 0.3 0.8 0.1 0.0 0.0 0.0 0.0 0.1 0.2 0.3 0.3 0.3 0.2 0.4 2.8 1.7 2.0 1.2 0.7 0.7 0.9 1.0 1.6 1.4 1.4 1.3 1.2 1.8 2.3 2.9 3.8 3.9 2.1 3.3 4.4 5.1 3.0 2.8 5.4 3.3 2.0 4.7
0.0 0.0 0.3 2.1 0.1 0.1 0.4 0.1 0.1 0.3 0.1 0.1 0.7 1.5 0.8 1.1 2.0 2.2 1.9 1.0 1.2 1.8 1.6 1.5 1.1 1.3 1.4 1.7 1.9 2.9 4.6 4.6 4.6 2.4 3.7 3.9 3.9 3.1 2.8 3.0 3.1 nan nan nan
Water_Equivalent
0.00 0.00 0.00 0.00 0.00 0.00 0.00 0.00 0.00 0.00 0.00 0.00 0.00 0.00 0.00 0.00 0.00 0.00 0.00 0.00 0.00 0.00 0.00 0.00 0.00 0.00 0.00 0.00 0.00 0.00 0.00 0.00 0.00 0.00 0.00 0.00 0.00 0.00 0.00 0.00 0.00 0.00 0.00 0.00
0.00 0.00 0.00 0.00 0.00 0.00 0.00 0.00 0.00 0.00 0.00 0.00 0.00 0.00 0.00 0.00 0.00 0.00 0.00 0.00 0.00 0.00 0.00 0.00 0.00 0.00 0.00 0.00 0.00 0.00 0.00 0.00 0.00 0.00 0.00 0.00 0.00 0.00 0.00 0.00 0.00 0.00 0.00 0.00
0.00 0.00 0.00 0.00 0.00 0.00 0.00 0.00 0.00 0.00 0.00 0.00 0.00 0.00 0.00 0.00 0.00 0.00 0.00 0.00 0.00 0.00 0.00 0.00 0.00 0.00 0.00 0.00 0.00 0.00 0.00 0.00 0.00 0.00 0.00 0.00 0.00 0.00 0.00 0.00 0.00 0.00 0.00 0.00
0.00 0.00 0.00 0.00 0.00 0.00 0.00 0.00 0.00 0.00 0.00 0.00 0.00 0.01 0.00 0.00 0.00 0.00 0.00 0.00 0.00 0.00 0.00 0.00 0.00 0.00 0.00 0.00 0.00 0.00 0.00 0.00 0.00 0.00 0.00 0.00 0.00 0.00 0.00 0.00 0.00 0.00 0.00 0.00
0.00 0.00 0.00 0.00 0.00 0.00 0.00 0.00 0.00 0.00 0.00 0.00 0.00 0.00 0.00 0.00 0.00 0.00 0.00 0.00 0.00 0.00 0.00 0.00 0.00 0.00 0.00 0.00 0.00 0.00 0.00 0.00 0.00 0.00 0.00 0.00 0.00 0.00 0.00 0.00 0.00 0.00 0.00 0.00
0.00 0.00 0.00 0.00 0.00 0.00 0.00 0.00 0.00 0.00 0.00 0.05 0.00 0.00 0.00 0.00 0.00 0.00 0.00 0.00 0.00 0.00 0.00 0.00 0.00 0.00 0.00 0.00 0.00 0.00 0.00 0.00 0.00 0.00 0.00 0.00 0.00 0.00 0.00 0.00 0.00 0.00 0.00 0.00
0.00 0.00 0.00 0.00 0.00 0.00 0.00 0.00 0.09 0.18 0.39 0.22 0.00 0.03 0.00 0.00 0.00 0.00 0.00 0.00 0.00 0.00 0.00 0.00 0.00 0.00 0.00 0.00 0.00 0.00 0.00 0.00 0.00 0.00 0.00 0.00 0.00 0.00 0.00 0.00 0.00 0.00 0.00 0.00
0.00 0.00 0.00 0.00 0.00 0.00 0.00 0.00 0.19 0.48 0.43 0.20 0.04 0.08 0.01 0.00 0.00 0.00 0.00 0.00 0.00 0.00 0.00 0.00 0.00 0.00 0.00 0.00 0.00 0.00 0.00 0.00 0.00 0.00 0.00 0.00 0.00 0.00 0.00 0.00 0.00 0.00 0.00 0.00
0.00 0.00 0.00 0.00 0.00 0.00 0.00 0.00 0.00 0.11 0.62 0.59 0.02 0.00 0.00 0.00 0.00 0.00 0.00 0.00 0.00 0.00 0.00 0.00 0.00 0.00 0.00 0.00 0.00 0.00 0.00 0.00 0.00 0.00 0.00 0.00 0.00 0.00 0.00 0.00 0.00 0.00 0.00 0.00
0.00 0.01 0.00 0.00 0.00 0.00 0.00 0.00 0.09 0.11 0.73 0.54 0.00 0.00 0.00 0.00 0.00 0.00 0.00 0.00 0.00 0.00 0.00 0.00 0.00 0.00 0.00 0.00 0.00 0.00 0.00 0.00 0.00 0.00 0.00 0.00 0.00 0.00 0.00 0.00 0.00 0.00 0.00 0.00
0.00 0.00 0.01 0.00 0.00 0.00 0.00 0.00 0.00 0.00 0.12 0.50 0.40 0.06 0.00 0.00 0.00 0.00 0.00 0.00 0.00 0.00 0.00 0.00 0.00 0.00 0.00 0.00 0.00 0.00 0.00 0.00 0.00 0.00 0.00 0.00 0.00 0.00 0.00 0.00 0.00 0.00 0.00 0.00
0.00 0.00 0.15 0.00 0.00 0.00 0.00 0.00 0.00 0.22 0.14 0.14 0.38 0.24 0.00 0.00 0.00 0.00 0.00 0.00 0.00 0.00 0.00 0.00 0.00 0.00 0.00 0.00 0.00 0.00 0.00 0.00 0.00 0.00 0.00 0.00 0.00 0.00 0.00 0.00 0.00 0.00 0.00 0.01
0.00 0.09 0.53 0.29 0.02 0.00 0.01 0.00 0.00 0.00 0.07 0.33 0.78 0.24 0.00 0.00 0.00 0.00 0.00 0.00 0.00 0.00 0.00 0.00 0.00 0.00 0.00 0.00 0.00 0.00 0.00 0.00 0.00 0.00 0.00 0.00 0.00 0.00 0.00 0.00 0.00 0.01 0.02 0.02
nan 0.01 0.02 0.13 0.01 0.00 0.04 0.00 0.00 0.01 0.45 0.35 0.20 0.07 0.00 0.00 0.00 0.00 0.00 0.00 0.00 0.00 0.00 0.00 0.00 0.00 0.00 0.00 0.00 0.00 0.00 0.00 0.00 0.00 0.00 0.00 0.00 0.00 0.00 0.01 0.02 0.02 0.02 0.02
0.02 0.09 0.01 0.01 0.00 0.00 0.00 0.01 0.00 0.02 0.01 0.06 0.03 0.02 0.00 0.00 0.00 0.00 0.00 0.00 0.00 0.00 0.00 0.00 0.00 0.00 0.00 0.00 0.00 0.00 0.00 0.00 0.00 0.00 0.00 0.00 0.01 0.02 0.03 0.03 0.03 0.03 0.03 0.02
0.03 0.29 0.05 0.24 0.00 0.00 0.01 0.00 0.00 0.00 0.01 0.02 0.06 0.09 0.00 0.00 0.00 0.00 0.00 0.00 0.00 0.01 0.00 0.00 0.00 0.00 0.00 0.00 0.00 0.00 0.00 0.00 0.01 0.01 0.02 0.03 0.03 0.06 0.06 0.06 0.09 0.05 0.05 0.05
0.13 0.44 0.93 1.19 0.03 0.06 0.46 0.03 0.00 0.00 0.00 0.00 0.12 0.04 0.00 0.00 0.01 0.00 0.01 0.00 0.01 0.00 0.00 0.00 0.00 0.00 0.00 0.00 0.00 0.00 0.00 0.01 0.03 0.05 0.11 0.11 0.08 0.11 0.07 0.06 0.09 0.07 0.06 0.07
0.11 0.53 1.02 1.77 1.13 2.12 0.12 0.00 0.00 0.00 0.00 0.00 0.00 0.00 0.00 0.01 0.00 0.00 0.00 0.00 0.00 0.00 0.00 0.00 0.00 0.00 0.00 0.00 0.00 0.01 0.03 0.04 0.07 0.15 0.22 0.10 0.13 0.17 0.06 0.06 0.07 0.06 0.04 0.05
0.05 0.15 0.97 2.16 1.46 0.14 0.01 0.00 0.00 0.00 0.01 0.00 0.00 0.00 0.00 0.00 0.00 0.00 0.00 0.00 0.00 0.00 0.00 0.00 0.00 0.00 0.00 0.01 0.01 0.04 0.06 0.06 0.08 0.08 0.09 0.06 0.20 0.34 0.10 0.37 0.07 0.05 0.22 0.16
0.12 0.11 0.37 1.73 2.03 1.65 0.01 0.00 0.00 0.00 0.06 0.00 0.00 0.00 0.00 0.01 0.17 0.02 0.00 0.00 0.00 0.00 0.00 0.00 0.00 0.01 0.02 0.02 0.03 0.06 0.03 0.05 0.06 0.06 0.08 0.07 0.21 0.45 0.35 0.21 0.30 0.37 0.37 0.35
0.56 1.00 1.02 1.08 1.74 0.49 0.00 0.00 0.00 0.44 0.03 0.00 0.00 0.00 0.01 0.08 0.01 0.00 0.00 0.00 0.00 0.00 0.00 0.00 0.02 0.02 0.03 0.06 0.08 0.06 0.04 0.05 0.04 0.06 0.07 0.10 0.17 0.46 0.30 0.35 0.32 0.42 0.46 0.25
0.21 0.85 1.84 1.27 1.58 1.61 0.00 0.00 0.00 0.00 0.00 0.00 0.00 0.00 0.02 0.01 0.00 0.00 0.00 0.00 0.00 0.00 0.00 0.01 0.04 0.03 0.04 0.09 0.15 0.08 0.06 0.04 0.07 0.10 0.14 0.29 0.49 0.47 0.49 0.83 0.51 0.70 0.62 0.61
0.45 0.05 0.37 0.10 0.31 0.00 0.00 0.00 0.00 0.00 0.02 0.03 0.03 0.01 0.01 0.02 0.01 0.00 0.00 0.00 0.00 0.00 0.04 0.04 0.06 0.06 0.04 0.07 0.16 0.27 0.04 0.07 0.14 0.51 0.72 0.72 0.64 0.64 0.67 1.00 0.58 0.84 0.72 0.86
0.02 0.00 0.13 0.08 0.02 0.00 0.00 0.00 0.00 0.01 0.02 0.01 0.03 0.01 0.05 0.04 0.04 0.15 0.11 0.06 0.04 0.04 0.06 0.09 0.14 0.15 0.10 0.11 0.13 0.14 0.13 0.17 1.12 1.04 0.51 0.39 0.51 0.40 0.51 0.73 0.86 1.20 0.90 0.71
0.02 0.01 0.06 0.18 0.03 0.02 0.01 0.00 0.00 0.02 0.03 0.05 0.04 0.04 0.01 0.03 0.28 0.19 0.19 0.13 0.07 0.07 0.09 0.11 0.16 0.13 0.13 0.11 0.11 0.17 0.20 0.36 0.59 0.64 0.28 0.47 0.71 0.81 0.45 0.38 0.62 0.47 0.28 0.72
0.00 0.00 0.05 0.27 0.01 0.03 0.06 0.01 0.02 0.04 0.01 0.01 0.07 0.13 0.08 0.14 0.16 0.16 0.16 0.09 0.11 0.15 0.14 0.15 0.12 0.12 0.11 0.14 0.17 0.25 0.52 0.54 0.57 0.32 0.53 0.54 0.55 0.49 0.43 0.42 0.38 nan nan nan
SL_Ratio
nan nan nan nan nan nan nan nan nan nan nan nan nan nan nan nan nan nan nan nan nan nan nan nan nan nan nan nan nan nan nan nan nan nan nan nan nan nan nan nan nan nan nan nan
nan nan nan nan nan nan nan nan nan nan nan nan nan nan nan nan nan nan nan nan nan nan nan nan nan nan nan nan nan nan nan nan nan nan nan nan nan nan nan nan nan nan nan nan
nan nan nan nan nan nan nan nan nan nan nan nan nan nan nan nan nan nan nan nan nan nan nan nan nan nan nan nan nan nan nan nan nan nan nan nan nan nan nan nan nan nan nan nan
nan nan nan nan nan nan nan nan nan nan nan nan nan 6.1 nan nan nan nan nan nan nan nan nan nan nan nan nan nan nan nan nan nan nan nan nan nan nan nan nan nan nan nan nan nan
nan nan nan nan nan nan nan nan nan nan nan nan nan nan nan nan nan nan nan nan nan nan nan nan nan nan nan nan nan nan nan nan nan nan nan nan nan nan nan nan nan nan nan nan
nan nan nan nan nan nan nan nan nan nan nan 6.3 nan nan nan nan nan nan nan nan nan nan nan nan nan nan nan nan nan nan nan nan nan nan nan nan nan nan nan nan nan nan nan nan
nan nan nan nan nan nan nan nan 6.0 6.3 6.8 6.3 nan 6.0 nan nan nan nan nan nan nan nan nan nan nan nan nan nan nan nan nan nan nan nan nan nan nan nan nan nan nan nan nan nan
nan 5.0 nan nan nan nan nan nan 5.9 8.9 7.3 6.3 6.0 6.8 4.7 nan nan nan nan nan nan nan nan nan nan nan nan nan nan nan nan nan nan nan nan nan nan nan nan nan nan nan nan nan
5.0 5.4 nan nan nan nan nan nan nan 6.5 9.1 7.8 5.3 nan nan nan nan nan nan nan nan nan nan nan nan nan nan nan nan nan nan nan nan nan nan nan nan nan nan nan nan nan nan nan
nan 4.9 nan nan nan nan nan nan 6.2 5.9 8.5 8.8 6.0 5.7 nan nan nan nan nan nan nan nan nan nan nan nan nan nan nan nan nan nan nan nan nan nan nan nan nan nan nan nan nan nan
nan 5.0 2.6 nan nan nan nan nan nan 7.5 6.0 7.9 8.2 7.6 nan nan nan nan nan nan nan nan nan nan nan nan nan nan nan nan nan nan nan nan nan nan nan nan nan nan nan nan 10.0 10.0
nan nan 5.6 nan nan nan nan nan nan 6.5 7.1 6.5 7.3 8.2 nan nan nan nan nan nan nan nan nan nan nan nan nan nan nan nan nan nan nan nan nan nan nan nan nan nan 5.0 nan nan 4.3
nan 4.8 4.5 3.5 3.4 5.0 6.9 nan nan nan 5.7 6.8 7.7 7.0 nan nan nan nan nan nan nan nan nan nan nan nan nan nan nan nan nan nan nan nan nan nan nan nan 5.0 nan 4.5 4.2 4.5 4.3
nan 5.4 3.2 4.5 3.9 nan 6.2 5.0 nan 4.0 6.2 5.2 5.6 4.5 2.5 nan nan 5.0 nan nan nan nan nan nan nan nan nan nan nan nan nan nan nan nan nan nan nan nan 7.5 5.4 4.9 4.6 4.5 4.6
5.0 6.5 3.8 2.8 nan nan 5.0 5.9 5.0 4.9 4.7 7.0 5.1 6.0 nan nan nan nan nan nan nan nan nan nan nan nan nan nan nan nan nan nan nan nan 5.0 nan 4.4 4.8 4.8 4.8 5.0 5.1 5.0 5.1
6.2 5.3 4.6 4.0 3.3 nan 4.9 nan nan 7.5 6.2 4.0 4.2 4.0 nan nan nan nan nan nan 3.8 3.0 nan nan nan nan nan nan nan nan nan nan 5.5 5.0 5.1 5.1 5.0 5.0 5.2 5.3 5.5 5.7 5.5 5.4
6.5 4.5 7.1 7.1 6.0 8.3 8.0 3.9 nan 6.3 nan 0.0 3.0 2.6 nan 5.0 5.0 4.7 4.7 2.7 2.9 nan nan nan nan nan nan nan nan 10.0 7.5 5.2 5.3 6.0 5.4 5.3 5.5 5.7 5.7 5.5 5.5 5.6 5.3 5.2
7.9 7.0 7.1 7.3 7.7 9.4 3.7 nan nan nan nan nan nan nan nan 4.6 5.0 nan nan nan nan nan nan nan nan 15.0 nan 10.0 8.8 5.5 5.5 5.9 6.3 5.9 5.5 5.8 6.1 6.5 5.9 5.8 5.8 5.6 5.4 5.4
6.2 7.1 7.5 8.9 8.2 4.4 2.8 nan nan 6.7 6.3 nan nan 3.3 2.5 nan 6.3 nan nan nan nan nan nan nan nan nan 12.5 7.5 6.1 7.3 6.8 6.5 6.5 6.1 6.5 6.1 6.6 7.2 7.0 6.7 6.2 5.9 5.8 5.4
7.6 7.7 7.8 8.3 9.2 9.5 4.7 nan nan nan 7.0 nan nan nan 8.3 7.3 13.2 10.0 nan nan nan nan nan nan 10.0 6.0 7.0 7.4 7.7 7.3 8.2 7.7 8.0 8.3 8.3 8.2 7.5 7.4 7.5 6.3 6.6 5.9 5.8 6.0
8.8 8.7 8.5 7.8 8.8 6.4 nan nan nan 8.8 4.7 nan nan nan 6.8 11.4 8.5 7.5 nan nan nan nan nan 5.0 6.2 8.2 9.2 9.8 8.9 8.5 7.8 9.9 10.5 11.2 10.8 9.0 8.1 7.2 7.4 7.0 6.2 6.9 6.5 6.4
9.8 10.1 9.6 9.3 9.7 9.0 nan nan 9.6 6.3 nan nan 5.0 5.6 9.3 9.2 8.3 nan nan nan nan 20.0 15.0 7.5 8.6 7.9 9.0 8.5 10.6 9.0 7.8 9.5 10.8 10.3 9.8 7.4 7.0 7.2 7.0 6.4 6.6 6.4 6.6 6.6
8.8 8.2 7.8 7.3 5.3 3.0 nan 5.0 nan nan 5.5 5.9 6.5 8.9 10.3 11.3 10.9 16.3 15.0 nan 15.0 15.0 6.7 7.1 8.5 8.0 7.2 8.3 10.1 11.5 9.6 10.1 8.9 6.5 5.8 6.5 6.6 6.6 7.2 6.8 6.8 6.4 6.2 6.1
5.4 5.0 4.7 4.8 4.7 3.5 5.6 5.7 5.0 4.8 5.4 6.3 6.1 8.9 8.5 15.8 13.4 7.6 7.3 8.6 8.1 7.4 8.6 8.9 8.7 8.2 9.2 8.8 9.1 11.5 11.2 8.9 5.7 6.1 6.9 7.0 6.9 6.7 6.9 6.4 6.2 6.0 6.0 6.0
2.6 4.0 4.5 4.6 2.7 2.5 3.7 5.0 5.0 5.9 6.0 6.9 6.9 7.7 16.8 13.7 10.1 8.8 10.6 9.4 10.5 9.7 9.3 9.0 9.8 10.7 10.7 11.3 10.9 10.9 11.4 8.2 6.3 6.1 7.3 6.9 6.2 6.3 6.7 7.2 8.7 7.1 7.1 6.6
3.3 4.5 6.2 8.1 5.4 5.6 6.3 4.7 5.6 6.9 7.3 7.4 10.0 11.2 9.2 7.8 12.3 13.6 11.8 11.4 11.3 12.0 11.1 10.4 9.6 11.2 13.4 12.2 11.4 11.5 8.8 8.5 8.1 7.6 7.0 7.1 7.2 6.5 6.6 7.1 8.1 nan nan nan